sat.trackr.live / text

‹ back to catalog

STARLINK-4308

NORAD 53061 · 2022-077U

PAYLOAD ACTIVE UNKNOWN

§ Identity

Operator
Country
US
Launch date
2022-07-11
Launch site
AFWTR
Launch vehicle
Mass (kg)
RCS (m²)

Purposes: comms

External: N2YO · Heavens-Above · Gunter

§ Orbital elements

Epoch: 2026-09-19T21:49:33.229632Z

Period
93.91 min
Inclination
97.2858°
Eccentricity
0.0001503
Mean motion
15.33436557 rev/d
Perigee alt
464.5 km
Apogee alt
466.6 km
Semi-major
6,843.7 km
B*
3.1473e-5
RAAN
77.7637°
Arg perigee
89.8466°
Mean anomaly
270.2949°
Rev number
23,020

§ Raw data

STARLINK-43081 53061U 22077U   26262.90941238  .00000941  00000+0  31473-4 0  99922 53061  97.2858  77.7637 0001503  89.8466 270.2949 15.33436557230205

JSON: /api/v1/satellites/53061 · /tle

For live sub-satellite position, see the globe view (requires WebGL).

§ Visibility from observer

Set your observer location to see the next 7 days of passes ≥ 10°. The values pass through the URL so the page stays shareable.

No JS? Fill the form by hand. The geolocation button needs JavaScript.